Hourly Data Report for January 25, 2022

ST. JOHN'S INTL A
NEWFOUNDLAND
Current Station Operator: NAVCAN

47°37'07.000" N
52°45'09.000" W
140.50 m
8403505
71801
YYT

Download Data

Hourly Data (January 2022)
Hourly Data Report for January 25, 2022
TIME
LST
Temp Definition
°C
Dew Point Definition
°C
Rel Hum Definition
%
Precip. Amount Definition
mm

Wind Dir Definition
10's deg

Wind Spd Definition
km/h
Visibility Definition
km
Stn Press Definition
kPa
Hmdx Definition


Wind Chill Definition


Weather Definition


00:30 0.4 0.3 99   17 25 4.8 98.54     Rain, Fog
01:30 0.8 0.7 99   24 14 4.8 98.50     Fog
02:30 1.1 1.0 99   27 26 2.4 98.52     Fog
03:30 0.6 0.5 99   29 32 0.4 98.60     Fog
04:30 0.0 -0.1 99   30 31 4.8 98.78   -7 Fog
05:30 -0.3 -0.5 99   30 36 24.1 98.99   -7 Cloudy
06:30 -0.5 -1.3 94   31 24 24.1 99.29   -6 LegendNANA
07:30 -1.0 -1.9 93   31 23 24.1 99.47   -7 LegendNANA
08:30 -0.9 -2.1 92   31 25 24.1 99.62   -7 Cloudy
09:30 -1.0 -2.2 92   30 27 16.1 99.77   -7 LegendNANA
10:30 -0.9 -2.2 91   31 23 4.8 99.94   -7 Snow Showers
11:30 -1.0 -2.2 92   30 20 4.8 100.03   -7 Snow
12:30 -0.9 -2.4 90   30 13 24.1 100.15   -5 LegendNANA
13:30 -0.6 -2.4 88   27 21 24.1 100.23   -6 LegendNANA
14:30 -0.1 -3.0 81   28 18 24.1 100.30   -5 Mostly Cloudy
15:30 -1.4 -4.2 81   29 13 24.1 100.44   -6 LegendNANA
16:30 -1.4 -3.9 84   30 12 24.1 100.51   -5 LegendNANA
17:30 -2.0 -3.8 88   26 5 24.1 100.57   -4 Mostly Cloudy
18:30 -2.5 -4.6 86   24 8 24.1 100.63   -6 LegendNANA
19:30 -3.4 -5.0 88   24 9 24.1 100.65   -7 LegendNANA
20:30 -4.2 -5.6 90   24 10 24.1 100.69   -8 Mainly Clear
21:30 -4.4 -6.4 86   18 8 24.1 100.76   -8 LegendNANA
22:30 -4.2 -6.0 87   21 8 24.1 100.73   -8 LegendNANA
23:30 -3.7 -5.8 85   19 13 24.1 100.67   -9 Mostly Cloudy

Notes on Data Quality.

Legend

  • E = Estimated
  • M = Missing
  • NA = Not Available*
  • [empty] = Indicates an unobserved value
Date modified: